SCP
0 0 0 0 0 0 0 0 0 0 0 0 0 0 0 0 0 0 0 1 1 1 1 1 1 1 1 1 1 1 1 1 1 1 1 1 1 1 1 0 0 0 0 0
0 0 0 0 0 0 0 0 0 0 0 0 0 0 0 0 0 0 0 0 1 1 1 1 1 1 1 1 1 1 1 1 1 1 1 1 1 1 1 0 0 0 0 0
0 0 0 0 0 0 0 0 0 0 0 0 0 0 0 0 0 0 0 1 1 1 1 1 1 1 2 2 1 1 1 1 1 1 1 1 1 1 1 0 0 0 0 0
0 0 0 0 0 0 0 0 0 0 0 0 0 0 0 0 0 0 1 1 1 1 1 1 1 1 1 2 1 1 1 1 1 1 1 1 1 1 1 0 0 0 0 0
0 0 0 0 0 0 0 0 0 0 0 0 0 0 0 0 0 1 1 1 1 1 1 1 1 1 1 1 1 1 1 1 1 1 1 1 1 1 1 1 0 0 0 0
0 0 0 0 0 0 0 0 0 0 0 0 0 0 0 0 1 1 1 1 1 1 1 1 1 1 1 1 1 1 1 1 1 1 1 1 1 1 1 1 1 0 0 0
0 0 0 0 0 0 0 0 0 0 0 0 0 0 0 1 1 1 1 1 1 1 1 1 1 1 1 1 1 1 1 1 1 1 1 1 1 1 1 1 1 0 0 0
0 0 0 0 0 0 0 1 1 1 1 1 1 1 1 1 1 1 1 1 1 1 1 1 1 1 1 1 1 0 0 1 1 1 1 1 1 1 1 1 1 1 0 0
0 0 0 0 0 0 0 1 1 1 1 1 1 1 1 1 1 1 1 1 1 1 1 1 1 1 1 1 0 0 1 1 1 1 1 1 1 1 1 1 1 1 0 0
0 0 0 0 0 0 0 1 1 1 1 1 1 1 1 1 1 1 1 1 1 1 1 1 1 1 1 1 0 0 1 1 1 1 1 1 1 1 1 1 1 1 1 0
0 0 0 0 0 0 0 1 1 1 1 1 1 1 1 1 1 1 1 1 1 1 1 1 1 1 1 1 1 1 1 1 1 0 0 0 0 0 0 0 0 0 0 0
0 0 0 0 0 0 0 0 1 1 1 1 1 1 1 1 1 1 1 1 1 1 1 1 0 0 0 1 1 1 1 1 1 0 0 0 0 0 0 0 0 0 0 0
0 0 0 0 0 0 0 0 0 0 0 0 1 1 1 1 1 1 1 1 1 1 0 0 0 0 0 1 1 1 1 1 0 0 0 0 0 0 0 0 0 0 0 0
0 0 0 0 0 0 0 0 0 0 0 0 0 1 1 1 1 1 1 0 0 0 0 0 0 0 0 1 1 1 1 1 0 0 0 0 0 0 0 0 0 0 0 0
0 0 0 0 0 0 0 0 0 0 0 0 0 0 1 1 1 0 0 0 0 0 0 0 0 0 0 0 1 1 1 1 0 0 0 0 0 0 0 0 0 0 0 0
0 0 0 0 0 0 0 0 0 0 0 0 0 0 0 1 0 0 0 0 0 0 0 0 0 0 0 0 0 0 0 0 0 0 0 0 0 0 0 0 0 0 0 0
0 0 0 0 0 0 0 0 0 0 0 0 0 0 0 0 0 0 0 0 0 0 0 0 0 0 0 0 0 0 0 0 0 0 0 0 0 0 0 0 0 0 0 0
0 0 0 0 0 0 0 0 0 0 0 0 0 0 0 0 0 0 0 0 0 0 0 0 0 0 0 0 0 0 0 0 0 0 0 0 0 0 0 0 0 0 0 0
0 0 0 0 0 0 0 0 0 0 0 0 0 0 0 0 0 0 0 0 0 0 0 0 0 0 0 0 0 0 0 0 0 0 0 0 0 0 0 0 0 0 0 0
0 0 0 0 0 0 0 0 0 0 0 0 0 0 0 0 0 0 0 0 0 0 0 0 0 0 0 0 0 0 0 0 0 0 0 0 0 0 0 0 0 0 0 0
0 0 0 0 0 0 0 0 0 0 0 0 0 0 0 0 0 0 0 0 0 0 0 0 0 0 0 0 0 0 0 0 0 0 0 0 0 0 0 0 0 0 0 0
0 0 0 0 0 0 0 0 0 0 0 0 0 0 0 0 0 0 0 0 0 0 0 0 0 0 0 0 0 0 0 0 0 0 0 0 0 0 0 0 0 0 0 0
0 0 0 0 0 0 0 0 0 0 0 0 0 0 0 0 0 0 0 0 0 0 0 0 0 0 0 0 0 0 0 0 0 0 0 0 0 0 0 0 0 0 0 0
0 0 0 0 0 0 0 0 0 0 0 0 0 0 0 0 0 0 0 0 0 0 0 0 0 0 0 0 0 0 0 0 0 0 0 0 0 0 0 0 0 0 0 0
0 0 0 0 0 0 0 0 0 0 0 0 0 0 0 0 0 0 0 0 0 0 0 0 0 0 0 0 0 0 0 0 0 0 0 0 0 0 0 0 0 0 0 0
0 0 0 0 0 0 0 0 0 0 0 0 0 0 0 0 0 0 0 0 0 0 0 0 0 0 0 0 0 0 0 0 0 0 0 0 0 0 0 0 0 0 0 0
0 0 0 0 0 0 0 0 0 0 0 0 0 0 0 0 0 0 0 0 0 0 0 0 0 0 0 0 0 0 0 0 0 0 0 0 0 0 0 0 0 0 0 0
Wind_Speed
4 3 8 10 12 12 13 11 10 7 7 5 3 2 1 2 2 2 3 3 4 4 5 5 5 6 6 6 6 6 6 5 4 4 4 3 3 3 3 3 2 2 2 2
7 7 8 9 10 12 12 11 10 8 5 3 2 2 2 2 2 2 3 3 4 5 5 5 5 5 6 6 6 6 6 6 5 5 5 4 4 4 4 3 3 2 2 2
9 9 9 11 11 11 10 9 10 9 4 4 3 2 2 2 3 2 3 4 4 4 5 4 4 4 5 6 6 6 6 6 6 5 5 5 5 4 4 3 3 3 2 2
7 9 13 4 4 6 8 7 7 5 4 4 3 2 2 2 3 3 3 4 4 4 5 4 4 5 5 5 6 6 6 5 5 5 5 5 5 5 4 3 3 3 3 3
8 11 8 5 5 6 8 7 5 5 5 4 3 3 3 3 2 3 3 4 4 4 4 4 4 5 5 5 5 5 5 4 4 5 5 5 5 5 4 4 4 3 3 3
9 11 10 6 6 3 6 8 5 5 5 5 5 6 3 4 3 3 4 4 4 4 5 5 5 5 5 6 5 4 4 3 4 4 4 4 4 4 4 4 4 3 4 3
11 10 5 4 4 6 9 2 3 4 4 4 3 2 3 3 3 4 4 5 5 5 5 5 6 6 6 6 5 4 4 4 4 4 4 4 4 4 4 4 4 4 4 4
10 11 5 3 5 4 3 3 1 2 2 2 2 2 3 4 4 5 5 5 6 5 5 5 5 6 7 6 5 4 4 5 5 4 4 4 4 4 4 4 5 4 4 3
3 1 5 3 1 2 2 1 1 1 2 2 2 2 3 4 4 5 5 5 5 6 6 5 4 4 6 5 4 5 5 5 5 5 4 4 4 4 3 3 3 3 3 3
3 3 3 2 1 1 1 1 1 1 2 3 2 2 3 4 4 5 5 5 5 5 5 5 4 4 4 4 4 5 5 5 5 5 5 4 3 3 2 2 2 2 2 3
4 3 2 2 0 1 1 1 2 2 3 3 3 3 3 4 4 5 5 5 5 5 5 5 5 5 4 3 4 5 6 5 5 5 5 5 5 4 4 4 3 2 2 2
2 2 2 1 1 2 1 1 2 2 2 3 3 4 5 5 5 5 5 5 5 5 6 5 5 4 3 3 3 4 5 5 4 4 4 4 5 6 11 9 9 9 8 5
1 1 1 1 1 0 1 1 1 2 2 3 4 4 5 5 5 5 5 6 5 6 6 5 5 4 3 2 3 3 4 4 4 4 4 4 4 4 5 7 9 10 9 8
1 1 1 1 1 1 1 1 2 2 3 3 4 4 5 5 5 5 5 5 5 6 6 5 5 4 3 3 3 3 4 5 4 3 3 3 4 3 3 4 5 5 6 7
3 3 2 2 1 1 1 2 2 3 3 4 4 4 5 5 5 5 4 5 5 5 5 5 4 4 3 3 4 4 3 3 3 3 3 3 4 4 4 4 4 4 5 5
3 3 3 3 2 2 1 2 2 3 3 4 4 4 4 5 5 5 5 5 5 5 4 4 4 3 3 3 4 4 4 5 4 4 4 4 4 4 4 4 4 4 4 4
4 4 4 3 2 2 2 2 2 2 3 4 4 4 4 4 5 5 4 4 4 4 4 4 4 3 3 3 3 3 4 5 5 4 4 4 4 4 4 4 4 4 4 4
4 3 3 3 2 2 2 2 2 3 3 3 3 3 3 4 5 5 5 5 5 5 4 4 4 4 4 4 3 3 4 4 4 4 4 4 4 4 4 4 5 5 4 5
2 3 3 3 2 2 3 3 3 3 3 4 4 4 3 3 4 5 5 5 5 4 3 4 4 4 5 5 4 4 4 5 5 5 5 5 4 4 4 4 4 4 4 4
2 2 2 2 2 3 3 3 3 3 3 4 4 4 4 4 5 5 5 4 3 3 4 4 5 5 5 5 4 4 5 5 6 5 5 4 5 4 4 4 4 4 4 3
2 2 2 2 3 3 3 3 4 4 4 5 5 5 4 4 5 5 4 4 4 4 5 5 4 5 5 4 4 4 5 5 6 5 5 5 5 4 4 4 4 3 3 3
2 2 2 3 3 3 3 3 4 5 5 5 6 6 6 5 5 5 4 3 4 4 4 4 4 5 5 5 5 5 5 5 5 4 4 4 4 4 4 4 3 3 3 3
2 2 2 3 3 3 4 4 5 5 5 5 5 5 5 4 4 4 5 4 4 5 4 4 6 7 5 4 4 5 5 5 4 4 4 4 4 4 3 3 3 3 3 2
3 3 3 3 4 4 4 3 4 4 5 5 4 4 4 4 4 4 5 6 5 5 5 6 8 6 4 4 4 4 4 4 4 4 4 4 4 3 3 3 3 3 3 3
4 4 4 4 4 4 4 4 5 5 5 4 5 5 4 3 4 4 5 6 7 6 6 7 6 4 4 4 4 4 3 3 3 3 3 3 3 3 3 3 3 2 2 2
4 3 3 3 3 3 3 3 4 4 4 4 4 3 4 4 5 5 5 6 7 6 6 6 6 5 4 4 4 4 4 4 4 3 3 3 3 3 2 2 2 2 2 2
4 4 4 3 3 3 3 3 3 4 4 4 4 4 5 5 5 5 6 5 5 5 5 5 4 3 3 3 4 4 3 3 3 2 2 2 2 2 2 2 2 2 1 2
Wind_Direction
236 189 196 202 202 206 222 238 245 230 226 213 199 204 166 155 158 152 137 133 135 130 124 127 130 133 135 136 140 144 144 141 143 144 144 143 140 136 136 144 149 152 151 145
201 200 205 206 208 212 221 230 241 242 227 191 193 187 166 173 174 173 159 143 137 130 124 123 127 131 133 136 141 143 142 139 139 143 140 140 136 132 131 131 126 123 121 125
203 195 207 214 211 213 214 223 233 236 225 193 198 195 195 188 185 183 158 139 131 126 125 123 115 117 129 133 136 139 142 142 144 148 143 142 140 133 129 127 122 122 125 120
204 193 221 194 191 222 219 219 236 244 212 205 209 201 204 197 182 167 149 137 132 132 125 118 113 116 124 129 135 138 142 147 147 147 149 147 139 134 132 132 129 129 128 119
216 211 210 173 187 210 215 213 217 218 198 188 166 180 159 113 128 146 137 129 131 130 123 115 111 119 124 124 128 132 134 141 146 147 148 149 142 140 138 135 130 131 126 119
221 229 219 176 152 190 228 217 185 194 195 192 197 222 143 100 114 121 116 123 129 126 121 117 115 120 121 116 114 116 125 135 135 138 143 141 137 137 133 134 134 131 116 117
222 227 215 106 140 192 219 184 135 186 197 210 224 325 75 100 101 111 115 118 119 120 116 115 122 122 117 108 105 106 114 115 120 130 133 129 125 126 130 130 121 114 112 113
223 229 198 115 176 211 29 42 106 158 187 183 113 106 101 101 106 110 117 119 119 116 109 112 119 123 119 111 109 113 118 117 115 116 115 115 116 117 122 133 135 132 128 123
243 236 75 91 78 35 355 16 88 107 121 118 126 126 108 105 105 106 110 111 114 113 110 105 107 113 111 110 118 123 122 119 116 111 107 113 120 123 133 142 141 139 141 136
197 161 133 122 75 29 355 11 86 100 109 118 123 112 104 106 104 104 102 103 104 106 104 102 101 98 102 116 122 123 120 119 120 117 110 98 98 103 101 111 127 128 127 129
203 179 182 169 10 6 44 69 71 75 89 101 112 119 118 114 109 110 105 101 104 106 103 96 89 86 91 107 124 125 121 119 123 117 108 95 78 53 65 59 40 46 94 108
228 158 242 145 39 26 56 71 72 80 87 94 106 117 114 110 113 115 114 110 106 102 99 97 96 94 95 102 124 134 130 129 128 125 122 120 113 91 57 59 62 57 48 56
338 342 333 306 302 345 83 79 74 90 103 107 102 108 114 117 118 118 117 114 108 105 103 101 100 96 93 112 132 133 130 129 126 125 125 130 132 127 116 89 74 68 66 71
189 222 222 234 279 74 84 88 92 103 103 107 113 117 117 121 121 121 119 117 113 108 105 105 103 98 101 120 128 131 129 117 125 128 129 127 122 122 122 123 118 101 83 83
231 246 240 248 234 169 154 144 135 133 126 122 119 121 123 125 123 119 116 118 114 108 106 105 99 93 98 117 125 123 119 120 118 113 115 117 118 117 114 114 110 109 111 105
234 221 209 207 202 195 187 170 156 148 143 136 126 119 117 119 120 117 117 121 121 115 113 112 107 103 110 119 124 120 108 97 107 117 119 121 118 115 114 114 113 110 108 109
228 224 210 206 203 198 200 184 165 160 150 142 137 132 128 127 130 128 124 122 120 120 122 121 117 116 117 121 121 116 114 114 117 115 114 114 114 115 115 115 113 108 100 86
238 233 231 231 230 203 188 175 165 160 158 146 137 135 137 142 144 137 133 128 121 114 108 112 115 118 118 120 122 122 122 123 117 109 111 109 109 112 113 113 116 115 112 114
204 202 209 212 199 189 182 171 167 153 143 139 137 139 138 138 138 135 134 134 132 128 125 117 117 127 124 124 133 133 129 125 118 114 110 110 113 110 111 114 115 116 118 121
162 164 165 170 168 166 169 167 160 150 151 148 141 137 134 136 139 139 136 132 126 117 126 129 137 130 131 133 146 135 129 126 122 120 120 121 115 112 112 115 116 115 114 112
152 152 152 155 148 147 157 161 156 152 151 145 141 140 136 136 139 140 140 131 118 121 131 135 133 128 130 131 147 129 128 127 127 126 126 123 120 118 116 115 112 109 107 106
148 150 152 149 145 146 149 153 152 149 143 140 141 141 141 143 141 134 125 119 121 124 137 134 125 108 111 130 127 123 126 126 126 127 125 124 125 123 118 116 113 111 108 105
143 141 147 150 153 147 143 147 145 142 138 137 140 143 144 141 142 139 130 125 130 130 131 114 105 109 123 135 127 132 130 128 128 127 126 127 128 125 123 124 118 114 111 107
151 148 148 146 140 134 132 129 129 129 128 130 135 142 146 139 127 118 112 118 117 127 115 104 114 124 152 136 129 130 130 131 133 134 135 140 139 135 130 129 122 120 123 122
156 146 141 145 144 139 133 132 131 132 132 129 130 132 131 122 118 114 117 125 128 128 117 115 123 139 147 126 127 124 122 117 122 129 135 135 133 130 128 124 122 126 128 121
153 147 139 138 126 126 134 138 138 132 130 130 129 129 125 121 121 124 125 127 125 122 122 127 137 153 138 129 128 127 129 132 140 144 132 131 129 129 123 120 128 127 125 118
147 140 138 132 128 136 141 145 143 140 140 139 133 126 125 125 125 126 127 128 129 127 123 127 132 133 129 125 124 126 127 127 127 127 129 124 120 123 124 134 133 131 136 127